Weather History for KORH - March, 2013

Change the Weather History Date:

Thursday, March 7, 2013

  Actual Average Record
Temperature  
Mean Temperature 29 °F 32 °F  
Max Temperature 31 °F 40 °F 65 °F (1974)
Min Temperature 27 °F 24 °F 0 °F (2007)
Degree Days  
Heating Degree Days 36 33  
Month to date heating degree days 230 239  
Since 1 July heating degree days 4667 5076  
Cooling Degree Days 0 0  
Month to date cooling degree days 0 0  
Year to date cooling degree days 0 0  
Moisture  
Dew Point 26 °F    
Average Humidity 89    
Maximum Humidity 100    
Minimum Humidity 78    
Precipitation  
Precipitation 0.41 in 0.13 in 1.45 in (1932)
Month to date precipitation 0.53 0.89  
Year to date precipitation 7.41 7.61  
Sea Level Pressure  
Sea Level Pressure 30.00 in    
Wind  
Wind Speed 17 mph (NNE)    
Max Wind Speed 24 mph    
Max Gust Speed 37 mph    
Visibility 2 miles    
Events Fog , Rain , Snow    
T = Trace of Precipitation, MM = Missing Value Source: NWS Daily Summary

Daily Weather History Graph

Daily Weather History Graph

Search for Another Location

Airport or City:

Trip Planner

Search our weather history database for the weather conditions in past years. The results will help you decide how hot, cold, wet, or windy it might be!

Date:

Astronomy

Mar. 07, 2013 Rise Set
Actual Time 6:12 AM EST 5:44 PM EST
Civil Twilight 5:44 AM EST 6:12 PM EST
Nautical Twilight 5:12 AM EST 6:45 PM EST
Astronomical Twilight 4:39 AM EST 7:18 PM EST
Moon 3:14 AM EST (3/7) 1:25 PM EST (3/7)
Length of Visible Light 12h 28m
Length of Day
11h 32m
Waning Crescent, 20% of the Moon is Illuminated
Mar 7
Waning Crescent
Mar 11
New
Mar 19
First Quarter
Mar 27
Full
Apr 3
Last Quarter

Hourly Weather History & Observations

Time (EST) Temp. Windchill Dew Point Humidity Pressure Visibility Wind Dir Wind Speed Gust Speed Precip Events Conditions
12:10 AM 30.0 °F 18.7 °F 28.9 °F 96% 30.01 in 2.0 mi NE 16.1 mph 25.3 mph 0.02 in Snow Light Snow
12:26 AM 30.0 °F 19.5 °F 28.9 °F 96% 30.01 in 6.0 mi NE 13.8 mph 25.3 mph 0.02 in   Overcast
12:35 AM 30.0 °F 19.5 °F 28.0 °F 92% 30.01 in 6.0 mi NE 13.8 mph 33.4 mph 0.02 in Rain Light Freezing Rain
12:40 AM 30.0 °F 18.3 °F 28.0 °F 92% 30.00 in 4.0 mi NE 17.3 mph 33.4 mph 0.02 in Snow Light Snow
12:54 AM 28.9 °F 17.7 °F 28.0 °F 96% 30.05 in 3.0 mi NE 15.0 mph 26.5 mph 0.02 in Snow Light Snow
1:54 AM 28.9 °F 16.1 °F 27.0 °F 92% 30.02 in 8.0 mi NE 19.6 mph 31.1 mph 0.00 in   Overcast
2:54 AM 28.0 °F 15.3 °F 27.0 °F 96% 30.01 in 9.0 mi NE 18.4 mph 35.7 mph 0.00 in   Overcast
3:28 AM 28.0 °F 15.3 °F 26.1 °F 92% 29.97 in 1.8 mi NE 18.4 mph 29.9 mph 0.00 in Snow Light Snow
3:52 AM 28.4 °F 15.8 °F 26.6 °F 93% 29.97 in 2.0 mi NNE 18.4 mph 25.3 mph 0.00 in Snow Light Snow
3:54 AM 28.0 °F 15.7 °F 26.1 °F 92% 30.01 in 2.0 mi NE 17.3 mph 25.3 mph 0.00 in Snow Light Snow
4:03 AM 28.0 °F 14.6 °F 26.1 °F 92% 29.97 in 1.5 mi NE 20.7 mph 32.2 mph 0.00 in Snow Light Snow
4:39 AM 28.0 °F 15.3 °F 26.1 °F 92% 29.97 in 0.8 mi NNE 18.4 mph 31.1 mph 0.01 in Snow Light Snow
4:54 AM 28.0 °F 16.1 °F 26.1 °F 92% 30.00 in 0.5 mi NNE 16.1 mph 28.8 mph 0.01 in Fog , Snow Snow
5:16 AM 28.0 °F 14.3 °F 26.1 °F 92% 29.96 in 1.5 mi NNE 21.9 mph 28.8 mph 0.02 in Snow Light Snow
5:39 AM 28.0 °F 16.5 °F 25.0 °F 88% 29.97 in 3.0 mi NNE 15.0 mph 33.4 mph 0.02 in Snow Light Snow
5:54 AM 28.0 °F 14.6 °F 25.0 °F 88% 30.02 in 3.0 mi NNE 20.7 mph 29.9 mph 0.02 in Snow Light Snow
6:10 AM 28.0 °F 15.7 °F 25.0 °F 88% 29.98 in 2.5 mi NE 17.3 mph 29.9 mph 0.01 in Snow Light Snow
6:14 AM 27.0 °F 13.5 °F 25.0 °F 92% 29.98 in 1.8 mi NNE 19.6 mph 29.9 mph 0.01 in Snow Light Snow
6:33 AM 27.0 °F 14.7 °F 25.0 °F 92% 29.99 in 0.5 mi NNE 16.1 mph 32.2 mph 0.01 in Fog , Snow Snow
6:54 AM 27.0 °F 13.2 °F 25.0 °F 92% 30.03 in 1.0 mi NNE 20.7 mph 33.4 mph 0.02 in Snow Light Snow
7:18 AM 27.0 °F 13.2 °F 25.0 °F 92% 29.99 in 0.8 mi NNE 20.7 mph 31.1 mph 0.00 in Snow Light Snow
7:52 AM 26.6 °F 13.8 °F 24.8 °F 93% 29.99 in 0.5 mi NNE 17.3 mph 29.9 mph 0.02 in Fog , Snow Snow
7:54 AM 27.0 °F 14.3 °F 25.0 °F 92% 30.03 in 0.5 mi NNE 17.3 mph 29.9 mph 0.02 in Fog , Snow Snow
8:04 AM 27.0 °F 13.9 °F 25.0 °F 92% 29.99 in 0.5 mi NNE 18.4 mph 31.1 mph 0.00 in Fog , Snow Snow
8:11 AM 27.0 °F 14.3 °F 25.0 °F 92% 29.99 in 0.8 mi NNE 17.3 mph 31.1 mph 0.00 in Snow Light Snow
8:19 AM 27.0 °F 13.9 °F 25.0 °F 92% 29.99 in 1.2 mi NNE 18.4 mph 28.8 mph 0.00 in Snow Light Snow
8:31 AM 28.0 °F 15.7 °F 25.0 °F 88% 29.98 in 3.0 mi NNE 17.3 mph 28.8 mph 0.00 in Snow Light Snow
8:39 AM 28.0 °F 16.5 °F 24.1 °F 85% 29.98 in 5.0 mi NNE 15.0 mph 33.4 mph 0.01 in Snow Light Snow
8:54 AM 28.9 °F 15.4 °F 24.1 °F 82% 30.02 in 4.0 mi NNE 21.9 mph 31.1 mph 0.01 in Snow Light Snow
9:41 AM 28.9 °F 15.4 °F 24.1 °F 82% 29.97 in 8.0 mi NNE 21.9 mph 36.8 mph 0.00 in Snow Light Snow
9:54 AM 28.9 °F 16.1 °F 24.1 °F 82% 30.01 in 3.0 mi NNE 19.6 mph 34.5 mph 0.00 in Snow Light Snow
10:08 AM 30.0 °F 17.9 °F 25.0 °F 82% 29.97 in 2.0 mi NNE 18.4 mph 32.2 mph 0.00 in Snow Light Snow
10:36 AM 30.0 °F 18.7 °F 25.0 °F 82% 29.97 in 5.0 mi NNE 16.1 mph 33.4 mph 0.00 in Snow Light Snow
10:54 AM 30.0 °F 17.5 °F 25.0 °F 82% 30.02 in 3.0 mi NNE 19.6 mph 28.8 mph 0.00 in Snow Light Snow
11:06 AM 30.0 °F 19.5 °F 26.1 °F 85% 29.99 in 2.5 mi NE 13.8 mph 26.5 mph 0.00 in Snow Light Snow
11:37 AM 30.0 °F 19.5 °F 26.1 °F 85% 29.99 in 1.5 mi NNE 13.8 mph 25.3 mph 0.00 in Snow Light Snow
11:54 AM 30.0 °F 19.1 °F 26.1 °F 85% 30.03 in 1.2 mi NNE 15.0 mph 27.6 mph 0.00 in Snow Light Snow
12:08 PM 30.0 °F 18.3 °F 27.0 °F 88% 29.99 in 0.8 mi NNE 17.3 mph 27.6 mph 0.01 in Snow Light Snow
12:54 PM 30.0 °F 18.3 °F 27.0 °F 88% 30.02 in 0.8 mi NE 17.3 mph 25.3 mph 0.01 in Snow Light Snow
1:08 PM 30.9 °F 21.2 °F 26.1 °F 82% 29.98 in 0.8 mi NNE 12.7 mph 33.4 mph 0.00 in Snow Light Snow
1:49 PM 30.2 °F 19.8 °F 26.6 °F 86% 29.98 in 0.8 mi NNE 13.8 mph 25.3 mph 0.01 in Snow Light Snow
1:54 PM 30.0 °F 20.0 °F 27.0 °F 88% 30.02 in 0.8 mi NNE 12.7 mph 29.9 mph 0.01 in Snow Light Snow
2:34 PM 30.9 °F 19.8 °F 27.0 °F 85% 29.98 in 5.0 mi NNE 16.1 mph 27.6 mph 0.01 in Snow Light Snow
2:54 PM 30.9 °F 19.1 °F 27.0 °F 85% 30.02 in 3.0 mi NNE 18.4 mph 26.5 mph 0.01 in Snow Light Snow
3:01 PM 30.9 °F 20.7 °F 27.0 °F 85% 29.98 in 1.8 mi NNE 13.8 mph 26.5 mph 0.00 in Snow Light Snow
3:38 PM 30.0 °F 20.5 °F 27.0 °F 88% 29.98 in 1.2 mi North 11.5 mph 27.6 mph 0.01 in Snow Light Snow
3:54 PM 30.0 °F 20.0 °F 27.0 °F 88% 30.03 in 1.0 mi NNE 12.7 mph 25.3 mph 0.01 in Snow Light Snow
4:24 PM 30.0 °F 18.7 °F 27.0 °F 88% 29.99 in 0.8 mi NNE 16.1 mph 24.2 mph 0.01 in Snow Light Snow
4:54 PM 30.0 °F 18.7 °F 27.0 °F 88% 30.03 in 0.5 mi North 16.1 mph 26.5 mph 0.03 in Fog , Snow Snow
5:05 PM 30.0 °F 19.1 °F 27.0 °F 88% 29.99 in 0.5 mi NNE 15.0 mph 24.2 mph 0.00 in Fog , Snow Snow
5:54 PM 28.9 °F 18.2 °F 27.0 °F 92% 30.04 in 0.5 mi North 13.8 mph 23.0 mph 0.02 in Snow Light Snow
6:54 PM 28.0 °F 15.7 °F 26.1 °F 92% 30.04 in 0.8 mi North 17.3 mph 27.6 mph 0.04 in Snow Light Snow
7:01 PM 28.0 °F 16.5 °F 26.1 °F 92% 29.99 in 1.0 mi NNE 15.0 mph 25.3 mph 0.00 in Snow Light Snow
7:27 PM 28.9 °F 17.7 °F 26.1 °F 89% 29.99 in 0.8 mi NNE 15.0 mph 28.8 mph 0.01 in Snow Light Snow
7:37 PM 28.9 °F 15.8 °F 26.1 °F 89% 29.99 in 1.0 mi NNE 20.7 mph 31.1 mph 0.01 in Snow Light Snow
7:54 PM 28.9 °F 18.2 °F 26.1 °F 89% 30.04 in 1.0 mi NNE 13.8 mph 27.6 mph 0.03 in Snow Light Snow
8:03 PM 28.9 °F 17.3 °F 26.1 °F 89% 29.99 in 1.0 mi North 16.1 mph 28.8 mph 0.00 in Snow Light Snow
8:11 PM 28.0 °F 15.7 °F 26.1 °F 92% 29.98 in 0.8 mi NNE 17.3 mph 31.1 mph 0.00 in Snow Light Snow
8:19 PM 28.0 °F 15.7 °F 27.0 °F 96% 29.99 in 0.8 mi NNE 17.3 mph 27.6 mph 0.01 in   Overcast
8:54 PM 28.0 °F 14.9 °F 26.1 °F 92% 30.02 in 0.8 mi North 19.6 mph 26.5 mph 0.02 in Snow Light Snow
9:22 PM 28.0 °F 14.9 °F 26.1 °F 92% 29.97 in 1.0 mi North 19.6 mph 33.4 mph 0.02 in Snow Light Snow
9:52 PM 28.4 °F 16.2 °F 26.6 °F 93% 29.97 in 2.5 mi NNE 17.3 mph 28.8 mph 0.03 in Snow Light Snow
9:54 PM 28.0 °F 16.1 °F 26.1 °F 92% 30.01 in 2.5 mi NNE 16.1 mph 28.8 mph 0.03 in Snow Light Snow
10:11 PM 28.0 °F 16.1 °F 26.1 °F 92% 29.96 in 1.8 mi North 16.1 mph 29.9 mph 0.01 in Snow Light Snow
10:40 PM 28.0 °F 15.7 °F 25.0 °F 88% 29.96 in 1.0 mi NNE 17.3 mph 26.5 mph 0.03 in Snow Light Snow
10:47 PM 28.0 °F 16.5 °F 26.1 °F 92% 29.96 in 0.5 mi NNE 15.0 mph 29.9 mph 0.03 in Fog , Snow Snow
10:54 PM 28.0 °F 14.6 °F 26.1 °F 92% 30.00 in 0.5 mi North 20.7 mph 29.9 mph 0.05 in Fog , Snow Snow
11:54 PM 28.0 °F 15.7 °F 26.1 °F 92% 29.99 in 1.0 mi North 17.3 mph 29.9 mph 0.05 in Snow Light Snow